#timestamp,LO_Frequency,Hit,StdDev 
1618333215.2,286047002.0,N
1618333235.0,286047002.5,N
1618333236.0,286047002.5,N
1618333255.8,286047002.5,N
1618333275.6,286047004.1,N
1618333295.5,286047002.7,N
1618333315.3,286047001.4,N
1618333335.1,286047005.5,N
1618333355.9,286047003.0,N
1618333375.7,286047001.5,N
1618333395.5,286047004.3,N
1618333415.4,286047005.9,Y
1618333435.2,286047002.0,P
1618333455.1,286047000.0,N
1618333456.0,286047000.0,N
1618333475.8,286046999.9,N
1618333495.6,286046998.2,N
1618333515.5,286047000.7,N
1618333535.3,286047004.4,Y
1618333555.2,286047004.2,P
1618333575.9,286047001.6,N
1618333595.7,286047000.0,N
1618333615.6,286046999.0,N
1618333635.4,286046996.8,N
1618333655.2,286046999.1,N
1618333675.1,286046996.9,N
1618333676.0,286046996.9,N
1618333695.8,286046997.3,N
1618333715.7,286046998.2,N
1618333735.5,286047000.7,N
1618333755.3,286047001.1,N
1618333775.2,286046999.8,N
1618333795.0,286046999.7,N
1618333795.9,286046999.7,N
1618333815.8,286047000.5,N
1618333835.6,286046997.0,N
1618333855.4,286046996.6,N
1618333875.3,286046999.2,N
1618333895.1,286046998.4,N
1618333915.9,286046997.0,N
1618333935.7,286046997.7,N
1618333955.5,286046997.4,N
1618333975.4,286046998.8,N
1618333995.2,286046998.2,N
1618334015.0,286046998.9,N
1618334015.9,286046998.9,N
1618334035.8,286046996.8,N
1618334055.6,286046998.2,N
1618334075.5,286046997.1,N
1618334095.3,286046997.0,N
1618334115.1,286046998.8,N
1618334135.9,286046998.7,N
1618334155.7,286046997.4,N
1618334175.5,286046996.7,N
1618334195.4,286046994.9,Y
1618334215.2,286046996.9,P
1618334235.1,286046996.6,P
1618334236.0,286046996.6,P
1618334255.8,286046996.9,Y
1618334275.7,286047002.8,P
1618334295.5,286046998.1,N
1618334315.3,286046998.6,N
1618334335.2,286046998.8,N
1618334355.0,286047000.6,N
1618334355.9,286047000.6,N
1618334375.7,286047001.0,N
1618334395.6,286047000.8,N
1618334415.4,286047002.8,N
1618334435.3,286047001.1,N
1618334455.1,286046998.7,N
1618334456.0,286046998.7,N
1618334475.8,286047001.2,N
1618334495.7,286046997.1,N
1618334515.5,286046995.5,N
1618334535.3,286046997.9,N
1618334555.2,286046999.6,N
1618334575.0,286046996.6,N
1618334575.9,286046996.6,N
1618334595.8,286046999.5,N
1618334615.6,286046998.5,N
1618334635.4,286046997.4,N
1618334655.3,286046995.5,N
1618334675.1,286046993.3,Y
1618334695.9,286046997.9,P
1618334715.7,286046997.5,P
1618334735.5,286046997.2,P
1618334755.4,286046995.3,Y
1618334775.2,286046997.0,P
1618334795.0,286046999.1,N
1618334795.9,286046999.1,N
1618334815.8,286047000.5,N
1618334835.6,286047000.7,N
1618334855.5,286047002.1,N
1618334875.3,286047003.7,N
1618334895.1,286047003.8,N
1618334915.9,286046999.9,N
1618334935.7,286046999.1,N
1618334955.5,286046996.8,N
1618334975.4,286046997.8,N
1618334995.2,286046997.3,N
1618335015.1,286046995.6,N
1618335016.0,286046995.6,N
1618335035.8,286046997.8,N
1618335055.6,286046997.3,N
1618335075.5,286046998.3,N
1618335095.3,286046996.7,N
1618335115.2,286046995.3,N
1618335135.9,286046996.3,N
1618335155.7,286046997.3,N
1618335175.6,286046997.5,N
1618335195.4,286046997.8,N
1618335215.2,286046996.3,N
1618335235.1,286046991.7,Y
1618335236.0,286046991.7,P
1618335255.8,286046993.4,N
1618335275.7,286046994.2,N
1618335295.5,286046993.8,N
1618335315.3,286046993.6,N
1618335335.2,286046996.4,N
1618335355.0,286046994.3,N
1618335355.9,286046994.3,Y
1618335375.8,286047001.0,P
1618335395.6,286047001.0,N
1618335415.4,286047000.9,N
1618335435.3,286046998.5,N
1618335455.1,286047002.2,N
1618335475.8,286047004.3,N
1618335495.7,286047003.2,N
1618335515.5,286047003.6,N
1618335535.4,286047002.1,N
1618335555.2,286047001.8,N
1618335575.0,286047003.5,N
1618335575.9,286047003.5,N
1618335595.8,286047005.8,N
1618335615.6,286047003.3,N
1618335635.5,286047003.2,N
1618335655.3,286047005.5,N
1618335675.1,286047006.5,N
1618335695.9,286047008.0,N
1618335715.7,286047008.4,N
1618335735.5,286047008.8,N
1618335755.4,286047008.3,N
1618335775.2,286047006.4,N
1618335795.1,286047008.6,N
1618335796.0,286047008.6,N
1618335815.8,286047006.7,N
1618335835.6,286047007.2,N
1618335855.5,286047008.9,N
1618335875.3,286047008.1,N
1618335895.2,286047009.0,N
1618335915.9,286047007.5,N
1618335935.7,286047007.5,N
1618335955.6,286047005.9,N
1618335975.4,286047001.8,N
1618335995.2,286047003.9,N
1618336015.1,286047001.8,N
1618336016.0,286047001.8,N
1618336035.8,286047001.7,N
1618336055.7,286047001.6,N
1618336075.5,286047002.7,N
1618336095.3,286047002.2,N
1618336115.2,286047001.8,N
1618336135.0,286047002.2,N
1618336135.9,286047002.2,N
1618336155.8,286047002.3,N
1618336175.6,286047002.7,N
1618336195.4,286047001.6,N
1618336215.3,286047003.5,N
1618336235.1,286047003.8,N
1618336255.8,286047003.6,N
1618336275.7,286047004.0,N
1618336295.5,286047003.9,N
1618336315.3,286047002.6,N
1618336335.2,286047000.2,N
1618336355.0,286047002.4,N
1618336355.9,286047002.4,N
1618336375.8,286047005.5,N
1618336395.6,286047004.2,N
1618336415.4,286047004.1,N
1618336435.3,286047004.9,N
1618336455.1,286047009.1,Y
1618336475.9,286047005.1,P
1618336495.7,286047004.3,P
1618336515.5,286047002.0,N
1618336535.4,286047000.8,N
1618336555.2,286046998.5,N
1618336575.0,286047001.0,N
1618336575.9,286047001.0,N
1618336595.8,286046998.1,N
1618336615.6,286047000.8,N
1618336635.5,286046998.5,N
1618336655.3,286046998.9,N
1618336675.1,286046998.9,N
1618336695.9,286047000.8,N
1618336715.7,286047004.3,N
1618336735.5,286047004.1,N
1618336755.4,286047003.7,N
1618336775.2,286047002.4,N
1618336795.1,286047002.7,N
1618336796.0,286047002.7,N
